TJS-3 (43874 NORAD) Tracking and Keplerian Element Data

This shows tracking and keplerian element data for the satellite.

Feedback or suggestion? Click here.




ElementValue
Catalog43874
NameTJS-3
Epoch Orbit158
Epoch Day142.61987644
Epoch Year2019
RAAN107.5677
Inclination0.0487
Eccentricity0.0002051
Argument of Perigee60.7769
Mean Anonmoly358.0294
Mean Motion1.00991919
Decay Rate-1.39E-06
L11 43874U 18110A 19142.61987644 -.00000139 00000-0 00000+0 0 9992
L22 43874 0.0487 107.5677 0002051 60.7769 358.0294 1.00991919 1587

Live tracking and technical data element details for TJS-3 (NORAD 43874). TJS-3 can be tracked NOW for your location showing map with azimuth and elevation plus other details from your city location.

Track the satellite on the map from your city or location and see movement details for azimuth, elevation, latitude, longitude, range, height, and movement on the map or in text.







IsCatalogInMostPopularTable: catalog: 43874, numindb: 56
Update: records affected: 1



GetName: 43874 TJS-3

Hit Count: updated at: Thu, 23 May 2019 15:02:08 GMT